{"data":{"norad_id":60601,"epoch":"2026-05-25T04:37:30.387648Z","epoch_age_seconds":55023,"freshness":"FRESH","line1":"1 60601U 24150U   26145.19271282  .00000741  00000+0  33083-4 0  9997","line2":"2 60601  53.1623 311.0157 0001414  93.8514 266.2651 15.34390519 99683","mean_motion":15.34390519,"eccentricity":0.0001414,"inclination_deg":53.1623,"raan_deg":311.0157,"arg_perigee_deg":93.8514,"mean_anomaly_deg":266.2651,"bstar":3.3083e-5,"rev_number":9968,"period_min":93.848337966692,"perigee_km":461.76412108767,"apogee_km":463.69871867681,"semimajor_km":6840.8684198822,"source":"CELESTRAK","updated_at":"2026-05-25T13:38:19.282302Z"}}